OPS 4682 DEB, 38424

Orbit data source: Space-Track

OPS 4682 DEB, 38424 is space debris in LEO originally from a launch on Sat, 03 Apr 1965 UTC launched from the Air Force Western Test Range (AFWTR). Debris objects in space refer to the collection of defunct objects orbiting the Earth. Examples of debris include non-operational satellites, rocket bodies, and fragments generated from explosions, collisions, or faulty payload assembly.

Loading next visibility...
Identifier
38424, 1965-027ED
Orbit
LEO
Country
Flag of USUS
Related business
Manufacturer
Unknown
Mission
Spacecraft
Bus & Motor
Unknown
Mass
Unknown
Launch date (UTC)
1965-04-03 (61 years ago)
Launch vehicle
Unknown
Launch site
Air Force Western Test Range (AFWTR)
Object type
Payload
Rocket body
Debris
Shape & HBR
Unknown shape, 0.1 m
Radar Cross Section
Medium (>0.1 m² and <1 m²)

Expand to show TLE details & history
Last TLE update: 1 day ago

TLE from 1 day ago
0 OPS 4682 DEB
1 38424U 65027ED  26150.02519263 -.00000006  00000-0 -41413-4 0  9998
2 38424  90.2362   6.8410 0025214 195.6657 164.3690 13.03889130309464
Epoch: 2026-05-30T00:36Z
TLE epoch observation values (Epoch: 2026-05-30T00:36:16.643Z)
Latitude
0.00001°
Longitude
110.22451°
Altitude
1,268.298 km
Speed
7.213 km/s
True Right ascension
00h 27m 21s
True Declination
0° 00' 00"
Sunlit
Object was in daylight at epoch
Visualization orbit readout
Latitude
Unknown
Longitude
Unknown
Altitude
Unknown
Speed
Unknown
Apparent Right ascension
Unknown
Apparent Declination
Unknown
Sunlit
N/A
Visualization observer readout
Local Sidereal Time
16:15:10
Azimuth
Unknown
Elevation
Unknown
Doppler factor
Unknown
Orbital elements
Apogee altitude
1,263.226 km
Perigee altitude
1,224.789 km
Semi-major axis
7,622.145 km
Eccentricity
0.00252
Inclination
90.2362°
RAAN
6.841°
Arg. of periapsis
195.6657°
True anomaly
164.44661°
Mean anomaly
164.369°
Eccentric anomaly
164.40783°
Mean motion
3.26158 °/min
Orbital period
110.38 mins
BSTAR
-0.000041413
Loading maneuver chart data...
Computing Atmospheric mass density...
Loading historical data...
Loading historical data...
Loading historical data...
Loading historical data...
Loading historical data...
Loading historical data...
Loading historical data...

Documentation

Showing up to 5 results
|